Zurück zum Katalog

QIANFAN-38

AktivKommunikationPO
NORAD 62239·PAYLOAD·🇨🇳 China

Gestartet Dec 5, 2024 von Taiyuan Satellite Launch Center

Loading…

Nächste Überflüge (nächste 24 Stunden)

TLE

AktuellSource: Space-Track

Epoche: Sep 14, 2026, 21:38 UTC

1 62239U 24232C   26257.90173609  .00000108  00000-0  14777-3 0  9990
2 62239  89.0159  13.5311 0016446 116.0330 244.2517 13.51027924136510

Verfolge QIANFAN-38 in Echtzeit mit AllMySat

Download on the App Store